Regional Weather Roundup
Issued by NWS Kansas City/Pleasant Hill, MO

Home | Current Version | Previous Version | Graphics & Text | Print | Product List | Glossary Off
Versions: 1 2 3 4 5 6 7 8 9 10 11 12 13 14 15 16 17 18 19 20 21 22 23 24 25 26 27

000
ASUS43 KEAX 281510
RWREAX

WEATHER ROUNDUP FOR EASTERN KANSAS AND NORTHWEST MISSOURI
NATIONAL WEATHER SERVICE KANSAS CITY/PLEASANT HILL MO
1000 AM CDT SUN AUG 28 2016

KSZ040-057-103>105-MOZ028-029-037-043-281600-
...KANSAS CITY METROPOLITAN AREA...

CITY           SKY/WX    TMP DP  RH WIND       PRES   REMARKS
K.C. INTL      MOSUNNY   81  71  71 S6        30.14R
K.C. DOWNTOWN  SUNNY     84  71  65 S5        30.12R
LEES SUMMIT    SUNNY     81  71  71 S7        30.15R
OLATHE - IXD   SUNNY     80  72  76 S8        30.15R
OLATHE - OJC   SUNNY     79  71  76 S6        30.14S
LAWRENCE       SUNNY     80  74  81 E3        30.12S

$$

MOZ001>008-011>017-020>025-030>033-038>040-044>046-053-054-281600-
...NORTHERN AND CENTRAL MISSOURI...

CITY           SKY/WX    TMP DP  RH WIND       PRES   REMARKS
ST. JOSEPH     SUNNY     80  73  79 S8        30.12S
MOSBY          SUNNY     81  73  78 CALM      30.13R
WHITEMAN AFB   MOSUNNY   80  79  96 SW6       30.14S
CLINTON        CLOUDY    81  73  78 CALM      30.15S HAZE
SEDALIA        MOSUNNY   82  73  74 S7        30.17R
WARSAW         NOT AVBL
CHILLICOTHE    NOT AVBL
KIRKSVILLE     SUNNY     80  73  79 SE5       30.17S

$$

MOZ041-047>049-056>058-063>065-088>090-097-281600-
...EASTERN AND SOUTHERN MISSOURI...

CITY           SKY/WX    TMP DP  RH WIND       PRES   REMARKS
ST. LOUIS INTL MOSUNNY   88  69  53 CALM      30.17S HX  92
SPIRIT OF STL  SUNNY     84  76  76 W3        30.15S HX  93
COLUMBIA       SUNNY     83  75  77 S6        30.16F HX  90
JEFFERSON CITY MOSUNNY   80  74  81 E5        30.15F
ROLLA          SUNNY     82  73  74 SW6       30.18R
OSAGE BEACH    SUNNY     80  74  81 CALM      30.17S
SPRINGFIELD    SUNNY     82  71  69 S8        30.17R
BRANSON        MOSUNNY   81  73  78 NE5       30.19R
JOPLIN         MOSUNNY   81  72  74 S8        30.15S
WEST PLAINS    SUNNY     82  69  64 SE3       30.21R

$$

IAZ060-094-KSZ022-034>040-054-083-096-NEZ052-066-093-281600-
...KANSAS...SOUTHEAST NEBRASKA AND IOWA...

CITY           SKY/WX    TMP DP  RH WIND       PRES   REMARKS
TOPEKA         SUNNY     80  72  76 S6        30.11S
MANHATTAN      SUNNY     81  72  74 CALM      30.09S
EMPORIA        SUNNY     78  72  81 S8        30.12R
CHANUTE        MOSUNNY   82  74  76 S9        30.13S
WICHITA        MOSUNNY   81  69  67 S9        30.10S
OMAHA          PTSUNNY   78  69  73 S9        30.10S
LINCOLN        PTSUNNY   78  70  76 S6        30.10S
FALLS CITY     SUNNY     79  73  82 SE5       30.11R
LAMONI         SUNNY     79  74  84 SE7       30.15R
DES MOINES     MOSUNNY   79  72  79 SE7       30.14S

$$





USA.gov is the U.S. government's official web portal to all federal, state and local government web resources and services.